Location: Bohy
(49.9380°N, 13.5753°E)
Time: 00:32:30
(UTC+00:00)

Cosmos 1758 - Pass Details

Date: 19 May 2025
Orbit: 491 x 512 km, 82.5° (Epoch: 15 June)

Event Time Altitude Azimuth Distance (km) Brightness Sun altitude
Rises 23:18:18 0° 355° (N) 2,643 8.3 -20.0°
Reaches altitude 10° 23:20:31 10° 2° (N) 1,750 7.1 -20.0°
Maximum altitude 23:24:12 44° 75° (ENE) 724 4.0 -19.9°
Enters shadow 23:25:15 35° 117° (ESE) 852 4.1 -19.9°
